DateTimeUTC,F1_A11,F1_S11,BsB_S11,BsG_S11,BsR_S11,BbsB_S11,BbsG_S11,BbsR_S11,BaB_A11,BaG_A11,BaR_A11,Tu_S11,T_S11,Uu_S11,U_S11,P_S11,T1_A11
2021-10-08T14:00:00Z,00000200,21000000,,,,,,,0000.16,0000.74,0000.43,16.3,23.3,00.6,00.4,0668.8,30.8
2021-10-08T14:01:00Z,00000200,21000000,,,,,,,0000.48,0000.24,0000.24,16.4,23.3,00.6,00.4,0668.8,30.8
2021-10-08T14:02:00Z,00000200,21000000,,,,,,,0000.74,0000.79,0000.48,16.4,23.3,00.6,00.4,0668.8,30.8
2021-10-08T14:03:00Z,00000200,61000000,,,,,,,0001.07,0000.80,0000.45,16.4,23.4,00.6,00.4,0668.8,30.9
2021-10-08T14:04:00Z,00000200,41000000,0000.02,0000.40,-000.05,0000.41,-000.08,-000.09,0001.09,0000.91,0000.84,16.9,23.3,01.5,01.0,0669.7,30.9
2021-10-08T14:05:00Z,00000200,01000000,0000.40,0000.26,0000.17,-000.25,0000.24,0000.11,0000.49,0000.71,0000.36,16.9,23.3,01.8,01.2,0669.7,30.9
2021-10-08T14:06:00Z,00000200,00000000,0000.16,0000.44,0000.11,0000.80,-000.02,-000.14,0000.38,0000.33,0000.37,16.9,23.3,02.1,01.4,0669.7,30.9
2021-10-08T14:07:00Z,00000200,00000000,-000.10,0000.19,0000.21,-000.07,-000.04,-000.04,0000.04,0000.09,-000.15,16.8,23.2,02.2,01.5,0669.7,30.9
2021-10-08T14:08:00Z,00000200,00000000,0000.59,0000.12,0000.34,-000.01,0000.10,0000.06,0000.29,-000.09,-000.05,16.8,23.2,02.3,01.5,0669.7,30.8
2021-10-08T14:09:00Z,00000200,00000000,0000.33,0000.08,0000.09,0000.62,-000.16,0000.19,-000.24,-000.53,-000.02,16.7,23.2,02.2,01.5,0669.7,30.8
2021-10-08T14:10:00Z,00000200,00000000,-000.46,0000.02,-000.21,0000.10,0000.13,0000.14,-000.40,-000.02,-000.31,16.7,23.1,02.1,01.4,0669.8,30.8
2021-10-08T14:11:00Z,00000200,01000000,0000.10,0000.32,0000.27,0000.87,-000.03,0000.24,-000.97,-000.90,-000.58,16.6,23.1,01.8,01.2,0669.8,30.8
2021-10-08T14:12:00Z,00000200,01000000,0000.05,0000.32,-000.08,0000.03,-000.05,-000.06,-000.24,-000.51,-000.25,16.6,23.1,01.6,01.1,0669.8,30.8
2021-10-08T14:13:00Z,00000200,01000000,0000.24,0000.10,-000.16,0000.60,-000.23,-000.01,0000.12,0000.31,0000.31,16.5,23.1,01.4,00.9,0669.8,30.8
2021-10-08T14:14:00Z,00000200,01000000,0000.74,0000.13,0000.04,0000.30,0000.03,0000.12,0000.52,0000.71,0000.32,16.6,23.0,01.4,00.9,0669.8,30.8
2021-10-08T14:15:00Z,00000200,01000000,0000.11,0000.37,0000.32,0000.09,-000.13,0000.19,0001.07,0000.77,0000.84,16.6,23.1,01.7,01.1,0669.8,30.8
2021-10-08T14:16:00Z,00000200,01000000,0000.32,0000.34,0000.07,0000.13,-000.20,0000.04,0000.62,0001.03,0000.43,16.7,23.1,01.8,01.2,0669.8,30.8
2021-10-08T14:17:00Z,00000200,00000000,0000.66,-000.18,0000.12,-000.41,0000.06,0000.13,0000.65,0000.08,0000.49,16.8,23.1,01.9,01.3,0669.8,30.8
2021-10-08T14:18:00Z,00000200,00000000,0000.02,0000.68,0000.02,0000.14,-000.14,0000.35,0000.29,0000.68,0000.19,16.9,23.2,01.9,01.3,0669.7,30.9
2021-10-08T14:19:00Z,00000200,00000000,0000.46,0000.15,-000.18,0000.84,0000.07,-000.02,-000.06,0000.32,0000.41,17.0,23.2,02.0,01.4,0669.4,30.9
2021-10-08T14:20:00Z,00000200,00000000,-000.18,0000.18,-000.10,0000.12,0000.04,-000.24,0000.40,0000.11,-000.27,17.0,23.2,02.1,01.4,0669.4,30.8
2021-10-08T14:21:00Z,00000200,00000000,0000.11,0000.27,0000.07,0000.75,-000.06,-000.12,0000.12,-000.33,0000.07,17.0,23.3,02.0,01.4,0669.4,30.8
2021-10-08T14:22:00Z,00000200,00000000,0000.22,0000.36,-000.03,0000.29,-000.22,-000.02,0000.83,0000.71,0000.31,16.9,23.2,02.3,01.5,0669.4,30.8
2021-10-08T14:23:00Z,00000200,00000000,0000.83,0000.26,0000.27,0000.38,0000.01,-000.15,0000.61,0000.58,0000.25,16.9,23.2,02.6,01.8,0669.4,30.8
2021-10-08T14:24:00Z,00000200,00000000,0000.80,0000.35,-000.11,0000.51,-000.05,-000.09,0000.58,0000.72,0000.99,16.8,23.2,02.9,01.9,0669.4,30.8
2021-10-08T14:25:00Z,00000200,00000000,0000.46,0000.30,0000.17,0000.61,0000.19,0000.11,0001.00,0000.68,0000.21,16.8,23.2,03.2,02.2,0669.5,30.8
2021-10-08T14:26:00Z,00000200,00000000,0000.21,0000.42,0000.07,0000.12,0000.34,-000.01,-000.03,0000.23,0000.48,16.7,23.1,03.4,02.3,0669.5,30.8
2021-10-08T14:27:00Z,00000200,00000000,0000.09,0000.47,0000.18,0000.38,0000.27,0000.08,0000.47,-000.00,-000.05,16.7,23.1,03.5,02.3,0669.5,30.8
2021-10-08T14:28:00Z,00000200,00000000,0000.13,0000.46,-000.07,-000.51,-000.04,0000.35,0000.45,0000.80,0000.54,16.6,23.1,03.3,02.2,0669.6,30.8
2021-10-08T14:29:00Z,00000200,00000000,0000.54,0000.14,0000.10,-000.21,0000.18,-000.26,0000.07,-000.21,0000.02,16.7,23.0,03.4,02.3,0669.7,30.8
2021-10-08T14:30:00Z,00000200,00000000,-000.10,0000.16,0000.32,-000.34,0000.26,-000.28,0000.19,0000.46,0000.19,16.8,23.1,03.3,02.2,0669.7,30.8
2021-10-08T14:31:00Z,00000200,00000000,0000.15,0000.46,0000.15,0000.38,0000.09,0000.22,-000.34,0000.10,-000.20,16.8,23.1,03.1,02.1,0669.7,30.8
2021-10-08T14:32:00Z,00000200,00000000,0000.61,0000.39,0000.37,0000.60,0000.18,-000.21,0000.46,0000.11,0000.23,17.0,23.1,03.0,02.0,0669.8,30.9
2021-10-08T14:33:00Z,00000200,00000000,-000.37,0000.34,-000.09,0000.28,0000.31,0000.04,0000.24,0000.33,0000.25,17.0,23.2,03.0,02.1,0669.8,30.9
2021-10-08T14:34:00Z,00000200,00000000,0001.04,0000.62,0000.13,0000.59,0000.04,-000.07,-000.11,-000.22,0000.07,17.1,23.2,03.0,02.0,0669.9,30.9
2021-10-08T14:35:00Z,00000200,00000000,0000.97,0000.04,0000.12,0000.19,-000.02,-000.14,0000.99,0000.71,0000.55,17.2,23.3,03.1,02.1,0669.9,30.9
2021-10-08T14:36:00Z,00000200,00000000,0001.18,0000.63,0000.20,0000.27,0000.40,-000.23,0000.54,0000.56,0000.24,17.2,23.3,03.1,02.2,0669.9,30.9
2021-10-08T14:37:00Z,00000200,00000000,0000.33,0000.79,0000.14,0000.55,0000.13,-000.07,0000.37,0000.41,0000.02,17.2,23.3,03.4,02.4,0670.0,30.9
2021-10-08T14:38:00Z,00000200,00000000,0000.37,0000.38,0000.31,0000.58,0000.37,-000.10,0000.35,-000.12,0000.52,17.2,23.3,03.5,02.4,0670.0,30.9
2021-10-08T14:39:00Z,00000200,00000000,0000.64,0000.60,-000.05,-000.12,0000.14,0000.16,-000.10,0000.24,-000.48,17.1,23.3,03.6,02.5,0670.0,30.9
2021-10-08T14:40:00Z,00000200,00000000,0000.98,0000.18,0000.32,0000.35,0000.43,-000.13,0000.11,0000.26,0000.27,17.0,23.3,03.7,02.5,0670.1,30.8
2021-10-08T14:41:00Z,00000200,00000000,0000.89,0000.52,0000.17,0000.25,0000.00,-000.21,0000.56,0000.10,0000.19,17.0,23.2,03.7,02.5,0670.1,30.8
2021-10-08T14:42:00Z,00000200,00000000,0000.25,0000.74,-000.02,0000.32,0000.27,0000.13,0000.18,0000.11,0000.11,16.9,23.2,03.7,02.5,0670.2,30.8
2021-10-08T14:43:00Z,00000200,00000000,0000.38,0000.55,0000.37,0000.18,-000.14,-000.02,0000.50,0000.88,0000.64,16.9,23.2,03.9,02.7,0670.1,30.8
2021-10-08T14:44:00Z,00000200,00000000,0000.93,0000.32,0000.15,-000.09,-000.17,0000.01,0000.86,0000.50,0000.48,16.9,23.2,04.0,02.7,0670.2,30.8
2021-10-08T14:45:00Z,00000200,00000000,0000.06,0000.73,0000.27,0000.61,0000.16,0000.30,0000.38,0000.73,0000.37,17.0,23.2,04.0,02.7,0670.3,30.8
2021-10-08T14:46:00Z,00000200,00000000,0000.09,0000.61,0000.43,0000.26,0000.04,0000.04,0000.29,0000.57,0000.60,17.1,23.2,04.1,02.8,0670.4,30.9
2021-10-08T14:47:00Z,00000200,00000000,0000.11,0000.36,0000.18,0000.71,0000.13,0000.27,0000.07,-000.04,-000.20,17.2,23.3,04.0,02.8,0670.4,30.9
2021-10-08T14:48:00Z,00000200,00000000,0000.74,0000.36,0000.26,0000.45,-000.10,0000.08,0000.27,0000.12,0000.05,17.3,23.3,04.0,02.7,0670.4,30.9
2021-10-08T14:49:00Z,00000200,00000000,0001.09,0000.95,0000.07,0000.35,0000.04,0000.27,-000.18,-000.06,-000.02,17.3,23.4,04.0,02.8,0670.5,30.9
2021-10-08T14:50:00Z,00000200,00000000,0001.29,0000.47,0000.31,0000.23,0000.44,0000.01,0000.04,-000.08,-000.38,17.3,23.4,03.8,02.6,0670.5,30.9
2021-10-08T14:51:00Z,00000200,00000000,0000.86,0000.39,0000.04,0000.23,0000.17,-000.04,0000.01,-000.35,-000.06,17.2,23.3,03.7,02.5,0670.5,30.9
2021-10-08T14:52:00Z,00000200,00000000,-000.09,0000.60,0000.37,0000.08,0000.06,0000.16,-000.27,-000.10,-000.02,17.1,23.3,03.7,02.5,0670.5,30.9
2021-10-08T14:53:00Z,00000200,00000000,0000.40,0000.27,-000.11,0000.59,-000.03,-000.06,-000.18,-000.17,-000.40,17.1,23.3,03.5,02.4,0670.5,30.9
2021-10-08T14:54:00Z,00000200,00000000,0000.67,0000.49,-000.20,0000.02,0000.01,0000.14,-000.07,-000.47,0000.06,17.0,23.3,03.4,02.3,0670.5,30.8
2021-10-08T14:55:00Z,00000200,00000000,0000.02,0000.42,0000.10,0000.46,0000.11,0000.11,-000.02,0000.09,0000.22,17.0,23.2,03.3,02.2,0670.5,30.8
2021-10-08T14:56:00Z,00000200,00000000,0000.45,0000.70,0000.21,0000.60,0000.46,-000.12,0000.29,0000.29,0000.51,16.9,23.2,03.3,02.2,0670.6,30.8
2021-10-08T14:57:00Z,00000200,40000000,,,,,,,-000.53,-000.68,-000.78,16.9,23.2,02.8,01.9,0670.5,30.8
2021-10-08T14:58:00Z,00000200,60000000,,,,,,,0000.19,0000.20,0000.06,16.6,23.3,02.9,01.9,0669.6,30.8
2021-10-08T14:59:00Z,00000200,20000000,,,,,,,-000.23,0000.21,0000.22,16.6,23.4,02.9,01.9,0669.6,30.8
